DateTimeUTC,F1_A11,F1_S11,BsB_S11,BsG_S11,BsR_S11,BbsB_S11,BbsG_S11,BbsR_S11,BaB_A11,BaG_A11,BaR_A11,Tu_S11,T_S11,Uu_S11,U_S11,P_S11,T1_A11
2021-03-05T05:00:00Z,00000200,20000000,,,,,,,-000.22,-000.07,0000.04,17.6,24.7,01.7,01.1,0658.6,30.9
2021-03-05T05:01:00Z,00000200,20000000,,,,,,,0000.41,0000.18,0000.41,17.6,24.7,01.7,01.1,0658.6,30.9
2021-03-05T05:02:00Z,00000200,20000000,,,,,,,-000.29,-000.31,-000.15,17.6,24.7,01.7,01.1,0658.6,31.0
2021-03-05T05:03:00Z,00000200,60000000,,,,,,,0000.19,0000.27,0000.18,17.6,24.7,01.7,01.1,0658.6,31.0
2021-03-05T05:04:00Z,00000200,41000000,0000.47,0000.15,0000.11,-000.03,0000.01,0000.16,0000.16,0000.37,-000.03,17.9,24.6,01.9,01.3,0659.4,31.0
2021-03-05T05:05:00Z,00000200,00000000,0000.94,0000.18,0000.30,-000.12,-000.20,0000.28,0000.28,0000.72,0000.38,18.0,24.6,01.8,01.2,0659.5,31.0
2021-03-05T05:06:00Z,00000200,01000000,0000.76,0000.16,0000.38,-000.10,-000.15,0000.13,0000.68,0000.17,0000.19,18.0,24.7,01.8,01.2,0659.4,31.0
2021-03-05T05:07:00Z,00000200,00000000,0001.03,0000.23,0000.15,-000.42,-000.01,0000.25,-000.11,0000.42,0000.06,18.1,24.7,01.8,01.2,0659.4,31.0
2021-03-05T05:08:00Z,00000200,01000000,0000.71,0000.24,0000.48,0000.03,0000.23,0000.28,0000.53,0000.15,0000.38,18.1,24.6,01.8,01.2,0659.5,31.0
2021-03-05T05:09:00Z,00000200,01000000,0000.58,0000.35,0000.34,0000.16,0000.14,0000.17,0000.04,-000.08,-000.15,18.0,24.6,01.8,01.2,0659.4,31.0
2021-03-05T05:10:00Z,00000200,01000000,0000.46,0000.28,0000.34,0000.04,-000.29,0000.11,0000.10,0000.38,0000.17,18.0,24.6,01.8,01.2,0659.4,31.0
2021-03-05T05:11:00Z,00000200,01000000,0001.05,0000.35,0000.40,-000.00,0000.07,0000.01,0000.21,0000.02,0000.30,18.0,24.6,01.8,01.2,0659.5,31.0
2021-03-05T05:12:00Z,00000200,01000000,0000.60,0000.40,0000.29,0000.40,0000.02,0000.04,0000.18,0000.24,-000.06,18.0,24.6,01.8,01.2,0659.4,31.0
2021-03-05T05:13:00Z,00000200,00000000,0000.04,0000.30,0000.07,0000.17,-000.02,0000.02,0000.45,0000.02,0000.24,17.9,24.6,01.9,01.2,0659.4,30.9
2021-03-05T05:14:00Z,00000200,01000000,0000.16,0000.12,0000.21,0000.26,0000.10,0000.11,-000.05,0000.17,0000.31,17.9,24.6,01.8,01.2,0659.4,31.0
2021-03-05T05:15:00Z,00000200,01000000,0000.50,0000.14,0000.24,-000.35,0000.05,0000.20,-000.04,0000.09,0000.19,17.9,24.6,01.8,01.2,0659.4,31.0
2021-03-05T05:16:00Z,00000200,01000000,0001.07,0000.51,0000.27,0000.19,-000.20,0000.11,0000.12,-000.05,0000.26,17.9,24.6,01.7,01.1,0659.5,31.0
2021-03-05T05:17:00Z,00000200,01000000,0000.40,0000.26,0000.55,-000.03,-000.16,0000.16,0000.31,0000.23,-000.26,17.9,24.6,01.7,01.1,0659.5,31.0
2021-03-05T05:18:00Z,00000200,01000000,0000.84,0000.12,0000.16,0000.25,-000.03,0000.13,0000.34,0000.31,0000.37,17.9,24.5,01.7,01.2,0659.4,30.9
2021-03-05T05:19:00Z,00000200,01000000,0000.77,0000.38,0000.01,0000.75,0000.26,0000.09,0000.02,0000.15,0000.10,17.9,24.5,01.7,01.1,0659.5,30.9
2021-03-05T05:20:00Z,00000200,01000000,0000.20,0000.46,0000.49,0000.05,-000.01,0000.28,0000.14,0000.45,0000.31,17.9,24.5,01.8,01.2,0659.4,30.9
2021-03-05T05:21:00Z,00000200,01000000,0001.00,0000.15,0000.33,-000.22,0000.13,0000.09,0000.62,0000.17,0000.34,17.8,24.5,01.7,01.1,0659.5,31.0
2021-03-05T05:22:00Z,00000200,01000000,0000.77,0000.24,0000.26,-000.50,0000.08,0000.16,-000.23,0000.07,0000.06,17.8,24.5,01.8,01.2,0659.5,31.0
2021-03-05T05:23:00Z,00000200,01000000,0000.40,0000.40,0000.61,-000.02,0000.02,0000.20,0000.26,-000.15,-000.33,17.8,24.5,01.7,01.1,0659.4,30.9
2021-03-05T05:24:00Z,00000200,01000000,0000.50,0000.16,-000.00,-000.14,0000.01,-000.00,-000.08,0000.35,0000.39,17.8,24.5,01.7,01.1,0659.4,30.9
2021-03-05T05:25:00Z,00000200,01000000,0000.59,0000.37,0000.40,0000.27,-000.24,0000.21,0000.16,-000.34,0000.16,17.8,24.5,01.7,01.1,0659.5,31.0
2021-03-05T05:26:00Z,00000200,01000000,0000.88,0000.35,0000.34,0000.31,0000.29,0000.24,0000.21,0000.40,-000.06,17.8,24.5,01.8,01.2,0659.6,31.0
2021-03-05T05:27:00Z,00000200,01000000,0000.92,0000.23,0000.36,-000.13,0000.06,0000.14,0000.05,0000.53,0000.16,17.8,24.5,01.6,01.1,0659.4,30.9
2021-03-05T05:28:00Z,00000200,01000000,0000.12,0000.11,0000.09,-000.13,0000.02,0000.00,0000.09,-000.02,0000.20,17.8,24.5,01.7,01.1,0659.5,30.9
2021-03-05T05:29:00Z,00000200,01000000,0001.05,0000.28,0000.40,0000.08,0000.08,0000.28,-000.08,-000.24,-000.02,17.8,24.5,01.6,01.0,0659.5,31.0
2021-03-05T05:30:00Z,00000200,01000000,0000.53,0000.39,0000.21,0000.11,-000.25,0000.15,0000.74,0000.58,0000.56,17.8,24.5,01.6,01.1,0659.4,30.9
2021-03-05T05:31:00Z,00000200,01000000,0001.16,0000.18,0000.32,-000.26,0000.02,0000.08,-000.11,0000.02,-000.25,17.8,24.4,01.6,01.1,0659.4,30.9
2021-03-05T05:32:00Z,00000200,01000000,0000.25,-000.00,0000.27,-000.16,0000.01,-000.02,0000.57,-000.01,0000.39,17.9,24.5,01.6,01.1,0659.5,31.0
2021-03-05T05:33:00Z,00000200,01000000,0000.80,0000.42,0000.34,-000.23,0000.25,0000.06,0000.05,0000.27,0000.33,17.9,24.5,01.6,01.0,0659.4,31.0
2021-03-05T05:34:00Z,00000200,01000000,0000.42,0000.48,0000.52,0000.49,-000.22,0000.06,0000.06,0000.23,0000.03,18.0,24.5,01.6,01.1,0659.4,31.0
2021-03-05T05:35:00Z,00000200,01000000,0000.74,0000.45,0000.18,0000.22,-000.25,0000.05,0000.47,0000.43,0000.26,18.0,24.6,01.5,01.0,0659.4,31.0
2021-03-05T05:36:00Z,00000200,01000000,0000.66,0000.17,0000.33,0000.18,0000.21,0000.18,-000.09,-000.03,-000.06,18.1,24.6,01.6,01.0,0659.5,31.0
2021-03-05T05:37:00Z,00000200,01000000,0000.65,0000.14,0000.28,-000.06,0000.02,0000.09,0000.12,-000.07,0000.45,18.1,24.6,01.5,01.0,0659.5,31.0
2021-03-05T05:38:00Z,00000200,01000000,0001.15,0000.29,0000.39,-000.13,0000.04,0000.24,0000.07,0000.01,0000.03,18.1,24.6,01.5,01.0,0659.5,31.0
2021-03-05T05:39:00Z,00000200,01000000,0000.52,0000.35,0000.07,0000.28,0000.06,0000.01,0000.07,0000.45,-000.33,18.0,24.6,01.4,00.9,0659.6,31.0
2021-03-05T05:40:00Z,00000200,01000000,0000.57,0000.36,0000.22,-000.09,-000.04,0000.18,0000.23,0000.22,0000.14,18.0,24.6,01.4,00.9,0659.5,31.0
2021-03-05T05:41:00Z,00000200,01000000,-000.13,0000.23,0000.21,-000.09,0000.11,0000.10,-000.01,-000.29,0000.04,18.0,24.6,01.3,00.9,0659.5,31.0
2021-03-05T05:42:00Z,00000200,01000000,0000.87,0000.44,0000.20,-000.11,0000.01,0000.11,-000.19,0000.07,0000.03,18.0,24.6,01.4,00.9,0659.5,31.0
2021-03-05T05:43:00Z,00000200,01000000,0000.45,0000.22,0000.26,-000.14,-000.13,-000.01,-000.07,-000.20,-000.10,17.9,24.6,01.3,00.9,0659.5,31.0
2021-03-05T05:44:00Z,00000200,01000000,0000.75,0000.40,0000.18,0000.10,0000.17,0000.05,0000.27,0000.51,0000.24,17.9,24.6,01.2,00.8,0659.5,31.0
2021-03-05T05:45:00Z,00000200,01000000,0000.33,0000.33,0000.25,0000.24,0000.05,-000.04,0000.30,-000.16,0000.16,17.9,24.6,01.2,00.8,0659.4,31.0
2021-03-05T05:46:00Z,00000200,01000000,0000.53,0000.22,0000.39,-000.08,-000.02,0000.08,0000.15,0000.47,0000.05,18.0,24.5,01.2,00.8,0659.5,31.0
2021-03-05T05:47:00Z,00000200,01000000,0000.74,0000.22,0000.36,0000.18,0000.01,0000.15,-000.30,-000.39,0000.28,18.0,24.6,01.2,00.8,0659.5,31.0
2021-03-05T05:48:00Z,00000200,01000000,0000.39,0000.39,0000.04,0000.14,-000.05,0000.03,0000.40,0000.44,-000.10,18.1,24.6,01.1,00.8,0659.5,31.0
2021-03-05T05:49:00Z,00000200,01000000,0000.63,0000.39,0000.29,-000.15,0000.19,0000.18,-000.05,0000.18,0000.40,18.1,24.6,01.2,00.8,0659.5,31.0
2021-03-05T05:50:00Z,00000200,01000000,0000.18,0000.19,0000.09,0000.05,0000.13,0000.15,0000.51,0000.15,0000.16,18.1,24.7,01.1,00.8,0659.5,31.0
2021-03-05T05:51:00Z,00000200,01000000,-000.15,0000.15,0000.27,-000.15,-000.06,-000.00,-000.27,-000.41,-000.38,18.1,24.6,01.1,00.8,0659.5,31.0
2021-03-05T05:52:00Z,00000200,01000000,0000.60,0000.38,0000.34,0000.10,-000.02,0000.28,-000.04,0000.39,0000.42,18.1,24.6,01.1,00.7,0659.6,31.0
2021-03-05T05:53:00Z,00000200,01000000,0000.12,0000.03,0000.45,-000.12,-000.26,0000.12,0000.15,0000.11,-000.06,18.1,24.6,01.0,00.7,0659.6,31.0
2021-03-05T05:54:00Z,00000200,01000000,0000.69,-000.03,0000.15,-000.35,0000.05,0000.30,-000.18,-000.26,-000.21,18.0,24.6,01.0,00.7,0659.6,31.0
2021-03-05T05:55:00Z,00000200,01000000,0000.62,0000.11,0000.36,0000.41,0000.18,0000.04,0000.35,0000.30,0000.24,18.0,24.6,00.9,00.6,0659.6,30.9
2021-03-05T05:56:00Z,00000200,01000000,0000.56,0000.20,0000.15,0000.12,-000.07,0000.19,0000.10,-000.05,-000.17,18.0,24.6,01.0,00.7,0659.6,31.0
2021-03-05T05:57:00Z,00000200,41000000,,,,,,,0000.43,0000.60,0000.42,18.0,24.7,01.2,00.8,0659.6,31.0
2021-03-05T05:58:00Z,00000200,61000000,,,,,,,-000.15,-000.08,-000.00,17.7,24.7,01.0,00.6,0658.6,31.0
2021-03-05T05:59:00Z,00000200,21000000,,,,,,,-000.42,-000.60,0000.04,17.7,24.9,00.9,00.6,0658.6,31.0
